DW6386 Weather Reports


Display with metric or nautical units.
time (UTC)temp
F
wind
direction
speed
MPH
gust
MPH
rain 1hr
in
rain 24hr
in
rain mn
in
humidity
%
barometer
mb
20260507214519 66 185 0.0 2.0 0.00 0.28 0.08 58 1012.1
20260507213027 65 112 0.0 4.0 0.00 0.28 0.08 55 1011.9
20260507211517 67 167 0.0 2.0 0.00 0.28 0.08 60 1011.5
20260507210015 67 164 1.0 4.0 0.00 0.32 0.08 55 1011.5
20260507204513 68 142 0.0 9.0 0.00 0.32 0.08 56 1011.5
20260507203018 69 130 0.0 0.0 0.00 0.32 0.08 52 1011.5
20260507201509 68 110 0.0 2.0 0.00 0.32 0.08 55 1011.6
20260507200006 67 278 0.0 2.0 0.00 0.37 0.08 59 1011.8
20260507194512 69 112 0.0 4.0 0.00 0.37 0.08 52 1011.8
20260507193002 69 23 1.0 5.0 0.00 0.37 0.08 56 1011.9
20260507191559 66 293 0.0 3.0 0.00 0.37 0.08 61 1012.0
20260507184558 66 167 1.0 3.0 0.00 0.37 0.08 61 1012.4
20260507183058 66 201 0.0 4.0 0.00 0.37 0.08 59 1012.2
20260507181557 66 96 0.0 6.0 0.00 0.37 0.08 60 1012.2
20260507180054 66 105 0.0 4.0 0.00 0.37 0.08 64 1012.2
20260507174558 64 167 1.0 5.0 0.00 0.37 0.08 68 1012.3
20260507173125 64 345 0.0 4.0 0.00 0.37 0.08 72 1012.8
20260507171554 64 141 0.0 4.0 0.00 0.37 0.08 65 1012.7
20260507170051 65 146 0.0 3.0 0.00 0.37 0.08 66 1012.7
20260507164549 63 146 1.0 6.0 0.00 0.37 0.08 67 1012.8
20260507163045 62 342 0.0 4.0 0.00 0.37 0.08 76 1012.8
20260507161548 61 184 0.0 5.0 0.00 0.37 0.08 78 1013.0
20260507160038 59 171 0.0 3.0 0.00 0.37 0.08 83 1013.0
20260507154533 57 148 0.0 4.0 0.00 0.37 0.08 86 1012.8
20260507153033 56 137 0.0 0.0 0.00 0.37 0.08 89 1012.9
20260507151532 55 113 0.0 0.0 0.00 0.37 0.08 89 1012.8
20260507150038 55 79 0.0 1.0 0.00 0.43 0.08 90 1012.7
20260507144531 55 127 0.0 0.0 0.00 0.43 0.08 90 1012.8
20260507143033 54 136 0.0 2.0 0.00 0.43 0.08 89 1012.9
20260507141537 54 224 0.0 3.0 0.00 0.43 0.08 90 1012.4
20260507140026 54 156 0.0 2.0 0.00 0.63 0.08 90 1012.3
20260507134524 54 228 0.0 3.0 0.00 0.63 0.08 91 1012.3
20260507133033 54 68 0.0 1.0 0.00 0.63 0.08 92 1012.2
20260507131527 54 146 0.0 0.0 0.00 0.63 0.08 93 1012.1
20260507130023 54 166 0.0 0.0 0.00 0.94 0.08 93 1012.0
20260507124527 54 120 0.0 1.0 0.00 0.94 0.08 93 1012.3
20260507123028 53 226 0.0 0.0 0.00 0.94 0.08 94 1011.9
20260507121518 53 107 0.0 0.0 0.00 0.94 0.08 94 1011.8
20260507120015 53 117 0.0 0.0 0.00 1.05 0.08 95 1011.8
20260507114515 53 131 0.0 0.0 0.00 1.05 0.08 95 1011.2
20260507113015 53 129 0.0 0.0 0.00 1.05 0.08 95 1011.5
20260507111514 53 153 0.0 0.0 0.00 1.05 0.08 95 1010.9
20260507110012 53 191 1.0 4.0 0.00 1.05 0.08 96 1010.5
20260507104511 53 166 0.0 0.0 0.01 1.05 0.08 96 1010.9
20260507103010 53 163 0.0 0.0 0.01 1.05 0.08 96 1010.9
20260507101509 53 200 0.0 5.0 0.01 1.05 0.08 96 1010.9
20260507100006 53 143 0.0 0.0 0.01 1.05 0.08 97 1011.0
20260507094505 53 146 0.0 0.0 0.01 1.04 0.07 97 1011.2
20260507093005 53 129 0.0 1.0 0.01 1.04 0.07 97 1010.6
20260507091505 53 117 0.0 0.0 0.01 1.04 0.07 97 1010.6
20260507090006 53 126 0.0 0.0 0.01 1.04 0.07 97 1010.4
20260507084501 53 126 0.0 0.0 0.01 1.03 0.06 97 1010.8
20260507083100 53 118 0.0 3.0 0.01 1.03 0.06 97 1010.6
20260507081558 54 280 0.0 2.0 0.01 1.03 0.06 97 1010.1
20260507080059 54 164 0.0 0.0 0.01 1.03 0.06 97 1010.1
20260507074557 54 148 0.0 6.0 0.00 1.02 0.05 97 1010.7
20260507073103 54 113 0.0 0.0 0.00 1.02 0.05 97 1010.6
20260507071552 54 181 0.0 2.0 0.00 1.02 0.05 97 1010.4
20260507070057 54 78 0.0 0.0 0.00 1.02 0.05 97 1010.6
20260507064553 54 103 0.0 0.0 0.00 1.02 0.05 97 1010.6
20260507063046 55 116 0.0 2.0 0.00 1.02 0.05 97 1010.9
20260507061545 55 67 0.0 0.0 0.00 1.02 0.05 97 1010.9
20260507060044 55 167 0.0 0.0 0.00 1.02 0.05 97 1010.8
20260507054541 55 181 0.0 0.0 0.02 1.02 0.05 97 1010.9
20260507053040 55 131 0.0 0.0 0.03 1.02 0.05 97 1011.3
20260507051538 56 249 0.0 4.0 0.05 1.02 0.05 97 1011.5
20260507050037 56 174 0.0 5.0 0.05 1.02 0.05 97 1011.7
20260507044537 57 137 0.0 2.0 0.03 1.00 0.03 98 1011.3
20260507043031 57 131 0.0 0.0 0.02 0.99 0.02 98 1011.2
20260507041530 57 131 0.0 0.0 0.00 0.97 0.00 98 1011.1
20260507040027 57 131 0.0 0.0 0.00 0.97 0.97 98 1011.1
20260507034530 57 131 0.0 0.0 0.00 0.97 0.97 98 1010.9
20260507033032 57 150 0.0 0.0 0.01 0.97 0.97 98 1010.8
20260507031532 58 172 0.0 0.0 0.02 0.97 0.97 98 1010.9
20260507030024 58 172 0.0 0.0 0.05 0.97 0.97 98 1011.3
20260507024524 58 173 0.0 0.0 0.05 0.97 0.97 98 1011.3
20260507023023 58 144 0.0 0.0 0.04 0.96 0.96 98 1011.9
20260507021522 58 145 0.0 0.0 0.02 0.94 0.94 97 1011.1
20260507020024 58 227 0.0 0.0 0.00 0.92 0.92 97 1011.3
20260507014522 58 131 0.0 0.0 0.00 0.92 0.92 97 1011.2
20260507013018 58 113 0.0 0.0 0.00 0.92 0.92 97 1010.7
20260507011528 59 158 0.0 1.0 0.00 0.92 0.92 97 1011.1
20260507010018 59 110 0.0 3.0 0.00 0.92 0.92 96 1011.1
20260507004512 60 134 0.0 4.0 0.00 0.92 0.92 96 1011.0
20260507003008 61 113 0.0 2.0 0.00 0.92 0.92 96 1010.6
20260507001509 63 161 0.0 2.0 0.01 0.92 0.92 96 1011.5
20260507000006 65 124 0.0 3.0 0.03 0.92 0.92 96 1011.1
20260506234506 66 100 0.0 0.0 0.07 0.92 0.92 97 1009.9
20260506233006 66 94 0.0 3.0 0.10 0.92 0.92 97 1009.9
20260506231505 66 63 0.0 3.0 0.10 0.91 0.91 97 1009.8
20260506230006 67 65 1.0 2.0 0.09 0.89 0.89 97 1010.2
20260506224503 67 52 0.0 2.0 0.05 0.85 0.85 97 1009.7
20260506223003 67 145 0.0 0.0 0.05 0.82 0.82 97 1009.3
20260506221503 67 67 1.0 3.0 0.04 0.81 0.81 97 1010.2
20260506220002 67 72 0.0 1.0 0.04 0.80 0.80 97 1009.6